Location: Mountain Grove
(34.0887°N, 86.6172°W)
Time: 20:56:23
(UTC+00:00)

Cosmos 1680 Rocket - Pass Details

Date: 14 July 2020
Orbit: 760 x 781 km, 74.1° (Epoch: 08 August)

Event Time Altitude Azimuth Distance (km) Brightness Sun altitude
Exits shadow 02:42:44 - 199° (SSW) 3,072 6.4 -18.3°
Reaches altitude 10° 02:44:40 10° 201° (SSW) 2,323 5.8 -18.6°
Maximum altitude 02:49:56 77° 287° (WNW) 803 3.6 -19.4°
Drops below altitude 10° 02:55:16 10° 14° (NNE) 2,339 6.4 -20.2°
Sets 02:57:40 0° 16° (NNE) 3,269 7.2 -20.5°
